Location: Asheville, NC
(35.6000°N, 82.5500°W)
Time: 07:03:57
(UTC-05:00)

Vanguard 2 - Pass Details

Date: 14 February 2018
Orbit: 553 x 2939 km, 32.9° (Epoch: 18 February)

Event Time Altitude Azimuth Distance (km) Brightness Sun altitude
Rises 02:31:25 0° 257° (WSW) 2,758 - -57.0°
Maximum altitude 02:36:22 10° 204° (SSW) 2,119 - -56.1°
Drops below altitude 10° 02:36:23 10° 204° (SSW) 2,119 - -56.1°
Sets 02:42:30 0° 156° (SSE) 3,591 - -55.1°
